EW9968 Weather Reports


Display with metric or nautical units.
time (UTC)temp
F
wind
direction
speed
MPH
gust
MPH
rain 1hr
in
rain 24hr
in
rain mn
in
humidity
%
barometer
mb
20260504214546 70 278 0.0 0.0 0.00 0.00 0.00 37 1006.4
20260504213041 70 247 0.0 2.0 0.00 0.00 0.00 36 1006.5
20260504211542 71 155 2.0 6.0 0.00 0.00 0.00 34 1006.5
20260504210053 72 272 4.0 8.0 0.00 0.00 0.00 34 1006.5
20260504204546 72 205 1.0 8.0 0.00 0.00 0.00 34 1006.5
20260504203042 72 228 0.0 6.0 0.00 0.00 0.00 33 1006.5
20260504201538 72 286 1.0 5.0 0.00 0.00 0.00 33 1006.5
20260504200048 73 232 2.0 8.0 0.00 0.00 0.00 32 1006.4
20260504194535 72 20 2.0 6.0 0.00 0.00 0.00 33 1006.5
20260504193032 73 65 3.0 8.0 0.00 0.00 0.00 31 1006.5
20260504191533 73 267 4.0 10.0 0.00 0.00 0.00 30 1006.5
20260504190029 73 213 2.0 8.0 0.00 0.00 0.00 31 1006.6
20260504184534 72 259 3.0 12.0 0.00 0.00 0.00 31 1006.9
20260504183033 72 76 3.0 11.0 0.00 0.00 0.00 31 1006.9
20260504181524 72 359 2.0 8.0 0.00 0.00 0.00 32 1007.0
20260504180025 72 220 3.0 9.0 0.00 0.00 0.00 30 1007.0
20260504174520 74 207 0.0 5.0 0.00 0.00 0.00 32 1006.9
20260504173016 71 267 3.0 9.0 0.00 0.00 0.00 33 1007.3
20260504171516 71 233 0.0 6.0 0.00 0.00 0.00 33 1007.4
20260504081526 45 21 0.0 0.0 0.00 0.00 0.00 68 1010.1
20260504044536 33 243 0.0 0.0 0.00 0.00 0.00 86 1010.4
20260504043045 33 243 0.0 0.0 0.00 0.00 0.00 85 1010.3
20260504041535 33 245 0.0 0.0 0.00 0.00 0.00 85 1010.3
20260504040030 33 245 0.0 0.0 0.00 0.00 0.00 84 1010.2
20260504034530 34 225 0.0 0.0 0.00 0.00 0.00 83 1010.1
20260504033025 34 226 0.0 0.0 0.00 0.00 0.00 81 1009.8
20260504031526 35 225 0.0 0.0 0.00 0.00 0.00 81 1009.8
20260504030023 35 226 0.0 0.0 0.00 0.00 0.00 79 1009.8
20260504024520 36 226 0.0 0.0 0.00 0.00 0.00 78 1009.7
20260504023017 37 226 0.0 0.0 0.00 0.00 0.00 77 1009.7
20260504021514 37 226 0.0 0.0 0.00 0.00 0.00 75 1009.6
20260504020012 38 226 0.0 0.0 0.00 0.00 0.00 73 1009.6
20260504014510 39 226 0.0 0.0 0.00 0.00 0.00 73 1009.6
20260504013007 40 226 0.0 0.0 0.00 0.00 0.00 70 1009.4
20260504011505 41 226 0.0 0.0 0.00 0.00 0.00 67 1009.2
20260504010006 42 226 0.0 0.0 0.00 0.00 0.00 67 1009.1
20260504004517 43 225 0.0 0.0 0.00 0.00 0.00 65 1008.8
20260504003005 44 225 0.0 0.0 0.00 0.00 0.00 59 1008.7
20260504001514 46 226 0.0 0.0 0.00 0.00 0.00 57 1008.6
20260504000003 47 229 0.0 0.0 0.00 0.00 0.00 54 1008.3
20260503234502 49 229 0.0 0.0 0.00 0.00 0.00 51 1008.3
20260503233001 50 121 0.0 0.0 0.00 0.00 0.00 50 1008.0
20260503231501 50 231 0.0 0.0 0.00 0.00 0.00 47 1008.0
20260503230113 51 105 0.0 0.0 0.00 0.00 0.00 47 1007.7
20260503224611 51 285 0.0 0.0 0.00 0.00 0.00 44 1007.5
20260503223112 52 281 0.0 0.0 0.00 0.00 0.00 45 1007.5
20260503221558 51 228 0.0 0.0 0.00 0.00 0.00 45 1007.3
20260503220058 51 9 0.0 2.0 0.00 0.00 0.00 44 1007.2